| time (UTC) | temp F | wind direction | speed MPH | gust MPH | rain 1hr in | rain 24hr in | rain mn in | humidity % | barometer mb |
| 20260506080349 | 52 | 0 | 8.0 | 11.0 | 0.00 | 0.00 | 0.00 | 100 | 1008.8 |
| 20260506072726 | 51 | 341 | 4.0 | 8.0 | 0.00 | 0.00 | 0.00 | 100 | 1008.8 |
| 20260506071525 | 51 | 0 | 5.0 | 7.0 | 0.00 | 0.00 | 0.00 | 100 | 1008.8 |
| 20260506070324 | 50 | 348 | 5.0 | 8.0 | 0.00 | 0.00 | 0.00 | 100 | 1008.8 |
| 20260506061540 | 50 | 4 | 3.0 | 6.0 | 0.00 | 0.00 | 0.00 | 100 | 1005.5 |
| 20260506060318 | 50 | 0 | 5.0 | 8.0 | 0.00 | 0.00 | 0.00 | 99 | 1005.5 |
| 20260506050432 | 50 | 4 | 3.0 | 5.0 | 0.00 | 0.00 | 0.00 | 97 | 1005.5 |
| 20260506044029 | 50 | 6 | 5.0 | 9.0 | 0.00 | 0.00 | 0.00 | 96 | 1005.5 |
| 20260506042828 | 50 | 14 | 4.0 | 10.0 | 0.00 | 0.00 | 0.00 | 96 | 1005.5 |
| 20260506041607 | 50 | 6 | 5.0 | 7.0 | 0.00 | 0.00 | 0.00 | 95 | 1005.5 |
| 20260506040406 | 50 | 0 | 6.0 | 8.0 | 0.00 | 0.00 | 0.00 | 94 | 1005.5 |
| 20260506035205 | 50 | 0 | 5.0 | 6.0 | 0.00 | 0.00 | 0.00 | 94 | 1005.5 |
| 20260506034004 | 50 | 0 | 7.0 | 9.0 | 0.00 | 0.00 | 0.00 | 94 | 1005.5 |
| 20260506032803 | 50 | 0 | 4.0 | 6.0 | 0.00 | 0.00 | 0.00 | 94 | 1005.5 |
| 20260506031621 | 50 | 0 | 4.0 | 5.0 | 0.00 | 0.00 | 0.00 | 93 | 1005.5 |
| 20260506030400 | 50 | 34 | 3.0 | 5.0 | 0.00 | 0.00 | 0.00 | 93 | 1005.5 |
| 20260506025159 | 50 | 0 | 4.0 | 9.0 | 0.00 | 0.00 | 0.00 | 93 | 1005.5 |
| 20260506024018 | 50 | 23 | 2.0 | 4.0 | 0.00 | 0.00 | 0.00 | 93 | 1005.5 |
| 20260506022757 | 50 | 346 | 4.0 | 7.0 | 0.00 | 0.00 | 0.00 | 92 | 1006.3 |
| 20260506021556 | 50 | 0 | 6.0 | 7.0 | 0.00 | 0.00 | 0.00 | 92 | 1008.8 |
| 20260506020355 | 50 | 14 | 2.0 | 5.0 | 0.00 | 0.00 | 0.00 | 91 | 1008.8 |
| 20260506015153 | 50 | 0 | 2.0 | 5.0 | 0.00 | 0.00 | 0.00 | 91 | 1008.8 |
| 20260506013952 | 50 | 0 | 4.0 | 8.0 | 0.00 | 0.00 | 0.00 | 91 | 1008.8 |
| 20260506012752 | 50 | 0 | 4.0 | 9.0 | 0.00 | 0.00 | 0.00 | 91 | 1008.8 |
| 20260506011549 | 50 | 8 | 5.0 | 8.0 | 0.00 | 0.00 | 0.00 | 90 | 1008.8 |
| 20260506010348 | 51 | 23 | 3.0 | 5.0 | 0.00 | 0.00 | 0.00 | 90 | 1008.8 |
| 20260506005148 | 51 | 17 | 2.0 | 3.0 | 0.00 | 0.00 | 0.00 | 90 | 1008.8 |
| 20260506003947 | 51 | 13 | 4.0 | 6.0 | 0.00 | 0.00 | 0.00 | 90 | 1008.8 |
| 20260506002745 | 51 | 23 | 4.0 | 7.0 | 0.00 | 0.00 | 0.00 | 90 | 1008.8 |
| 20260506001544 | 51 | 16 | 4.0 | 5.0 | 0.00 | 0.00 | 0.00 | 90 | 1008.8 |
| 20260506000342 | 51 | 26 | 6.0 | 8.0 | 0.00 | 0.00 | 0.00 | 90 | 1008.8 |
| 20260505235142 | 51 | 12 | 3.0 | 7.0 | 0.00 | 0.00 | 0.00 | 90 | 1008.8 |
| 20260505233940 | 51 | 36 | 4.0 | 7.0 | 0.00 | 0.00 | 0.00 | 90 | 1008.8 |
| 20260505232759 | 51 | 26 | 5.0 | 8.0 | 0.00 | 0.00 | 0.00 | 90 | 1008.8 |
| 20260505231538 | 51 | 34 | 7.0 | 9.0 | 0.00 | 0.00 | 0.00 | 90 | 1008.8 |
| 20260505230337 | 51 | 23 | 6.0 | 10.0 | 0.00 | 0.00 | 0.00 | 91 | 1008.8 |
| 20260505225136 | 51 | 23 | 5.0 | 7.0 | 0.00 | 0.00 | 0.00 | 91 | 1008.8 |
| 20260505223934 | 51 | 14 | 5.0 | 9.0 | 0.00 | 0.00 | 0.00 | 92 | 1008.8 |
| 20260505222814 | 51 | 32 | 3.0 | 5.0 | 0.00 | 0.00 | 0.00 | 92 | 1008.8 |
| 20260505221532 | 51 | 23 | 3.0 | 6.0 | 0.00 | 0.00 | 0.00 | 92 | 1008.8 |
| 20260505220332 | 51 | 23 | 5.0 | 7.0 | 0.00 | 0.00 | 0.00 | 91 | 1008.8 |
| 20260505215119 | 51 | 0 | 4.0 | 7.0 | 0.00 | 0.00 | 0.00 | 91 | 1008.8 |
| 20260505213918 | 52 | 23 | 3.0 | 7.0 | 0.00 | 0.00 | 0.00 | 91 | 1008.8 |
| 20260505212736 | 52 | 23 | 5.0 | 9.0 | 0.00 | 0.00 | 0.00 | 90 | 1008.8 |
| 20260505211535 | 52 | 33 | 3.0 | 5.0 | 0.00 | 0.00 | 0.00 | 90 | 1008.8 |
| 20260505210435 | 52 | 23 | 8.0 | 14.0 | 0.00 | 0.00 | 0.00 | 90 | 1008.8 |
| 20260505205214 | 53 | 40 | 5.0 | 7.0 | 0.00 | 0.00 | 0.00 | 89 | 1008.8 |
| 20260505204012 | 53 | 23 | 4.0 | 7.0 | 0.00 | 0.00 | 0.00 | 89 | 1008.8 |
| 20260505202812 | 53 | 39 | 8.0 | 11.0 | 0.00 | 0.00 | 0.00 | 89 | 1008.8 |
| 20260505201611 | 54 | 17 | 7.0 | 8.0 | 0.00 | 0.00 | 0.00 | 89 | 1008.8 |
| 20260505200429 | 54 | 41 | 6.0 | 7.0 | 0.00 | 0.00 | 0.00 | 89 | 1008.8 |
| 20260505195209 | 54 | 40 | 7.0 | 12.0 | 0.00 | 0.00 | 0.00 | 90 | 1008.8 |
| 20260505194007 | 54 | 23 | 6.0 | 12.0 | 0.00 | 0.00 | 0.00 | 92 | 1008.8 |
| 20260505192806 | 54 | 23 | 7.0 | 11.0 | 0.00 | 0.00 | 0.00 | 93 | 1008.8 |
| 20260505191605 | 55 | 31 | 3.0 | 7.0 | 0.00 | 0.00 | 0.00 | 94 | 1008.8 |
| 20260505190424 | 55 | 31 | 3.0 | 6.0 | 0.00 | 0.00 | 0.00 | 94 | 1007.1 |
| 20260505185202 | 55 | 23 | 2.0 | 3.0 | 0.00 | 0.00 | 0.00 | 94 | 1008.8 |
| 20260505184001 | 55 | 36 | 2.0 | 4.0 | 0.00 | 0.00 | 0.00 | 94 | 1008.8 |
| 20260505182800 | 55 | 15 | 2.0 | 4.0 | 0.00 | 0.00 | 0.00 | 94 | 1008.8 |
| 20260505181559 | 55 | 36 | 3.0 | 5.0 | 0.00 | 0.00 | 0.00 | 93 | 1008.8 |
| 20260505180358 | 55 | 45 | 3.0 | 5.0 | 0.00 | 0.00 | 0.00 | 93 | 1008.8 |
| 20260505175156 | 56 | 40 | 4.0 | 5.0 | 0.00 | 0.00 | 0.00 | 92 | 1008.8 |
| 20260505173956 | 56 | 45 | 3.0 | 5.0 | 0.00 | 0.00 | 0.00 | 92 | 1008.8 |
| 20260505172754 | 56 | 45 | 4.0 | 5.0 | 0.00 | 0.00 | 0.00 | 92 | 1008.8 |
| 20260505171553 | 56 | 51 | 5.0 | 8.0 | 0.00 | 0.00 | 0.00 | 92 | 1008.8 |
| 20260505170412 | 56 | 45 | 5.0 | 7.0 | 0.00 | 0.00 | 0.00 | 92 | 1008.8 |
| 20260505165211 | 56 | 23 | 6.0 | 7.0 | 0.00 | 0.00 | 0.00 | 92 | 1008.8 |
| 20260505163950 | 56 | 45 | 4.0 | 6.0 | 0.00 | 0.00 | 0.00 | 93 | 1008.8 |
| 20260505162749 | 56 | 56 | 7.0 | 10.0 | 0.00 | 0.00 | 0.00 | 93 | 1008.8 |
| 20260505161608 | 57 | 45 | 5.0 | 9.0 | 0.00 | 0.00 | 0.00 | 94 | 1008.8 |
| 20260505160346 | 56 | 45 | 6.0 | 7.0 | 0.00 | 0.00 | 0.00 | 94 | 1008.8 |
| 20260505152742 | 56 | 28 | 5.0 | 8.0 | 0.00 | 0.00 | 0.00 | 95 | 1008.8 |
| 20260505151542 | 56 | 23 | 4.0 | 7.0 | 0.00 | 0.00 | 0.00 | 95 | 1008.8 |
| 20260505150341 | 56 | 338 | 4.0 | 4.0 | 0.00 | 0.00 | 0.00 | 95 | 1008.8 |
| 20260505140334 | 56 | 338 | 4.0 | 4.0 | 0.00 | 0.00 | 0.00 | 97 | 1008.8 |
| 20260505123946 | 55 | 338 | 4.0 | 4.0 | 0.00 | 0.00 | 0.00 | 100 | 1008.8 |
| 20260505122745 | 55 | 338 | 4.0 | 4.0 | 0.00 | 0.00 | 0.00 | 100 | 1008.8 |
| 20260505121524 | 54 | 338 | 4.0 | 4.0 | 0.00 | 0.00 | 0.00 | 100 | 1008.8 |
| 20260505120323 | 53 | 338 | 4.0 | 4.0 | 0.00 | 0.00 | 0.00 | 100 | 1008.8 |
| 20260505115122 | 53 | 338 | 4.0 | 4.0 | 0.00 | 0.00 | 0.00 | 100 | 1008.8 |
| 20260505113921 | 53 | 338 | 4.0 | 4.0 | 0.00 | 0.00 | 0.00 | 100 | 1008.8 |
| 20260505112720 | 52 | 338 | 4.0 | 4.0 | 0.00 | 0.00 | 0.00 | 100 | 1008.8 |
| 20260505111519 | 52 | 338 | 4.0 | 4.0 | 0.00 | 0.00 | 0.00 | 100 | 1008.8 |
| 20260505110317 | 52 | 338 | 4.0 | 4.0 | 0.00 | 0.00 | 0.00 | 100 | 1008.8 |
| 20260505101611 | 52 | 338 | 4.0 | 4.0 | 0.00 | 0.00 | 0.00 | 100 | 1008.8 |
| 20260505100410 | 52 | 338 | 4.0 | 4.0 | 0.00 | 0.00 | 0.00 | 100 | 1008.8 |
| 20260505095209 | 52 | 338 | 4.0 | 4.0 | 0.00 | 0.00 | 0.00 | 100 | 1008.8 |
| 20260505094008 | 52 | 338 | 4.0 | 4.0 | 0.00 | 0.00 | 0.00 | 100 | 1008.8 |
| 20260505081620 | 51 | 338 | 4.0 | 4.0 | 0.00 | 0.00 | 0.00 | 100 | 1008.8 |